星链-5712 (STARLINK-5712 )

导读

STARLINK-5712是美国太空探索技术公司(SpaceX)星链星座的低轨通信卫星,于2023年2月12日发射升空,属于星链二代组网卫星。它运行在近地轨道,配备激光星间链路,可实现卫星间直接通信,为全球提供高速宽带互联网接入服务,助力星链完成全球覆盖的卫星互联网组网建设,目前已正常在轨运行超过三年。

Basic Information
目录编号:
55615
目录名称:
STARLINK-5712
国际标识:
2023-020AY
轨道中心:
EARTH
卫星名称:
星链-5712
卫星全名:
星链-5712 (STARLINK-5712 )
卫星状态:
在轨 (已飞行1219 天)
发射日期:
2023-02-12 UTC
国别 :
美国 (US)
星等 :
--
Orbit Information
数据来源 国际轨道数据 AOE轨道数据
星历时间 2026-06-15T01:26:58+0800
10小时前
查看轨道信息
2026-06-10T06:00:00+0800
5天前
查看轨道信息
半长轴 6861.282km 6861.138km
偏心率 0.0000659 0.000001
轨道倾角 43.004° 43.002°
近地点辐角 291.456° 291.339°
升交点赤经 165.896° 193.052°
平近点角 68.622° 224.167°
近地点 482.692km 482.994km
远地点 483.598km 483.008km
周期 94.269分钟 94.266分钟
每日圈数 15.275481 15.275963
Detailed Information
固有亮度:
5
最大亮度:
2.5
卫星平台:
Starlink v1.5
覆盖范围:
全球
运营商:
太空探索技术公司
运营商所在国:
美国
制造商(研发单位):
太空探索技术公司
制造商所在国:
美国
使用方式:
暂无
Satellite Introduction
星链(Starlink)计划是由太空探索技术公司(SpaceX)提出的一个巨型低轨卫星互联网星座项目,计划在2019年至2024年间在太空搭建由约1.2万颗卫星组成的“星链”网络,其中1584颗将部署在地球上空550千米处的近地轨道,并从2020年开始工作。该卫星仍在工作。
2D Orbit Map
3D Orbit Map
Orbit Altitude Analysis Chart
Orbit Inclination Analysis Chart
Orbit Comprehensive Analysis Chart
View Comprehensive Chart